When you browse on this site, cookies collect data to enhance your experience and personalize the content and advertising you see.
Visit our Privacy Policy to learn more. By continuing to use the site, you agree to this use of cookies and data.

Hourly Weather Georgetown

Today, 24 September, Thursday

Time Temperature Precipitation Wind Pressure Humidity
00:00 +33°C° 0 mm 5 mps 732 mmHg 47%
01:00 +32°C° 0 mm 5 mps 732 mmHg 51%
02:00 +32°C° 0 mm 6 mps 732 mmHg 57%
03:00 +30°C° 0 mm 6 mps 733 mmHg 63%
04:00 +30°C° 0 mm 6 mps 733 mmHg 70%
05:00 +30°C° 0 mm 6 mps 733 mmHg 72%
06:00 +30°C° 0 mm 7 mps 734 mmHg 74%
07:00 +30°C° 0 mm 7 mps 734 mmHg 77%
08:00 +30°C° 0 mm 7 mps 735 mmHg 75%
09:00 +30°C° 0 mm 7 mps 735 mmHg 74%
10:00 +30°C° 0 mm 7 mps 735 mmHg 73%
11:00 +30°C° 0 mm 7 mps 735 mmHg 71%
12:00 +32°C° 0 mm 6 mps 734 mmHg 70%
13:00 +32°C° 0 mm 5 mps 733 mmHg 68%
14:00 +32°C° 0 mm 4 mps 733 mmHg 66%
15:00 +33°C° 0 mm 4 mps 732 mmHg 63%
16:00 +33°C° 0 mm 4 mps 732 mmHg 61%
17:00 +33°C° 0 mm 3 mps 732 mmHg 60%
18:00 +32°C° 0 mm 2 mps 732 mmHg 58%
19:00 +32°C° 0 mm 1 mps 732 mmHg 56%
20:00 +32°C° 0 mm 1 mps 733 mmHg 56%
21:00 +32°C° 0 mm 1 mps 733 mmHg 55%
22:00 +32°C° 0 mm 1 mps 734 mmHg 54%
23:00 +32°C° 0 mm 2 mps 733 mmHg 55%

Tomorrow, 25 September, Friday

Time Temperature Precipitation Wind Pressure Humidity
00:00 +31°C° 0 mm 2 mps 733 mmHg 57%
01:00 +31°C° 0 mm 2 mps 733 mmHg 59%
02:00 +31°C° 0 mm 3 mps 733 mmHg 62%
03:00 +31°C° 0 mm 3 mps 732 mmHg 66%
04:00 +30°C° 0 mm 4 mps 732 mmHg 70%
05:00 +30°C° 0 mm 4 mps 733 mmHg 71%
06:00 +30°C° 0 mm 4 mps 733 mmHg 71%
07:00 +30°C° 0 mm 4 mps 734 mmHg 72%
08:00 +30°C° 0 mm 4 mps 734 mmHg 71%
09:00 +32°C° 0 mm 4 mps 734 mmHg 70%
10:00 +32°C° 0 mm 5 mps 734 mmHg 69%
11:00 +32°C° 0 mm 4 mps 733 mmHg 66%
12:00 +33°C° 0 mm 4 mps 733 mmHg 64%
13:00 +33°C° 0 mm 4 mps 732 mmHg 62%
14:00 +33°C° 0 mm 4 mps 732 mmHg 61%
15:00 +34°C° 0 mm 3 mps 731 mmHg 59%
16:00 +34°C° 0 mm 2 mps 731 mmHg 58%
17:00 +34°C° 0 mm 2 mps 731 mmHg 59%
18:00 +32°C° 0 mm 2 mps 731 mmHg 59%
19:00 +32°C° 0 mm 2 mps 731 mmHg 60%
20:00 +32°C° 0 mm 2 mps 731 mmHg 60%
21:00 +32°C° 0 mm 2 mps 732 mmHg 59%
22:00 +32°C° 0 mm 2 mps 732 mmHg 58%
23:00 +33°C° 0 mm 3 mps 732 mmHg 56%

Day after tomorrow, 26 September, Saturday

Time Temperature Precipitation Wind Pressure Humidity
00:00 +33°C° 0 mm 3 mps 732 mmHg 55%
01:00 +33°C° 0 mm 4 mps 732 mmHg 53%
02:00 +32°C° 0 mm 5 mps 731 mmHg 59%
03:00 +32°C° 0 mm 5 mps 731 mmHg 64%
04:00 +30°C° 0 mm 6 mps 731 mmHg 70%
05:00 +30°C° 0 mm 6 mps 731 mmHg 72%
06:00 +30°C° 0 mm 6 mps 732 mmHg 74%
07:00 +30°C° 0 mm 6 mps 732 mmHg 76%
08:00 +30°C° 0 mm 6 mps 732 mmHg 71%
09:00 +32°C° 0 mm 6 mps 733 mmHg 66%
10:00 +33°C° 0 mm 6 mps 733 mmHg 62%
11:00 +33°C° 0 mm 5 mps 732 mmHg 60%
12:00 +34°C° 0 mm 5 mps 732 mmHg 58%
13:00 +34°C° 0 mm 4 mps 731 mmHg 56%
14:00 +34°C° 0 mm 4 mps 730 mmHg 56%
15:00 +34°C° 0 mm 4 mps 730 mmHg 55%
16:00 +34°C° 0 mm 4 mps 729 mmHg 54%
17:00 +34°C° 0 mm 3 mps 729 mmHg 54%
18:00 +33°C° 0 mm 3 mps 729 mmHg 54%
19:00 +33°C° 0 mm 3 mps 729 mmHg 53%
20:00 +32°C° 0 mm 2 mps 730 mmHg 52%
21:00 +32°C° 0 mm 2 mps 730 mmHg 52%
22:00 +32°C° 0 mm 2 mps 731 mmHg 51%
23:00 +33°C° 0 mm 4 mps 731 mmHg 51%

27 September, Sunday

Time Temperature Precipitation Wind Pressure Humidity
00:00 +33°C° 0 mm 6 mps 731 mmHg 50%
01:00 +33°C° 0 mm 8 mps 731 mmHg 50%
02:00 +32°C° 0 mm 9 mps 731 mmHg 60%
03:00 +29°C° 0 mm 9 mps 731 mmHg 70%
04:00 +28°C° 0 mm 10 mps 731 mmHg 81%
05:00 +29°C° 0 mm 9 mps 732 mmHg 79%
06:00 +29°C° 0 mm 9 mps 732 mmHg 77%
07:00 +29°C° 0 mm 9 mps 733 mmHg 76%
08:00 +29°C° 0 mm 8 mps 733 mmHg 73%
09:00 +29°C° 0 mm 8 mps 733 mmHg 70%
10:00 +30°C° 0 mm 7 mps 733 mmHg 68%
11:00 +30°C° 0 mm 7 mps 733 mmHg 65%
12:00 +32°C° 0 mm 6 mps 732 mmHg 63%
13:00 +33°C° 0 mm 6 mps 731 mmHg 60%
14:00 +33°C° 0 mm 5 mps 731 mmHg 59%
15:00 +33°C° 0 mm 4 mps 730 mmHg 57%
16:00 +34°C° 0 mm 3 mps 730 mmHg 56%
17:00 +34°C° 0 mm 2 mps 730 mmHg 56%
18:00 +32°C° 0 mm 2 mps 730 mmHg 56%
19:00 +32°C° 0 mm 1 mps 730 mmHg 57%
20:00 +32°C° 0 mm 1 mps 731 mmHg 56%
21:00 +32°C° 0 mm 1 mps 731 mmHg 55%
22:00 +32°C° 0 mm 1 mps 732 mmHg 55%
23:00 +32°C° 0 mm 2 mps 732 mmHg 55%

28 September, Monday

Time Temperature Precipitation Wind Pressure Humidity
00:00 +33°C° 0 mm 3 mps 732 mmHg 56%
01:00 +33°C° 0 mm 4 mps 732 mmHg 56%
02:00 +32°C° 0 mm 4 mps 732 mmHg 61%
03:00 +32°C° 0 mm 5 mps 731 mmHg 66%
04:00 +30°C° 0 mm 6 mps 731 mmHg 71%
05:00 +30°C° 0 mm 6 mps 732 mmHg 72%
06:00 +30°C° 0 mm 6 mps 732 mmHg 72%
07:00 +30°C° 0 mm 6 mps 732 mmHg 72%
08:00 +30°C° 0 mm 6 mps 733 mmHg 72%
09:00 +30°C° 0 mm 7 mps 733 mmHg 72%
10:00 +30°C° 0 mm 7 mps 733 mmHg 71%
11:00 +30°C° 0 mm 6 mps 733 mmHg 70%
12:00 +32°C° 0 mm 5 mps 732 mmHg 68%
13:00 +32°C° 0 mm 4 mps 732 mmHg 66%
14:00 +31°C° 0 mm 3 mps 731 mmHg 65%
15:00 +31°C° 0 mm 3 mps 731 mmHg 63%
16:00 +32°C° 0 mm 2 mps 730 mmHg 62%
17:00 +31°C° 0 mm 2 mps 731 mmHg 63%
18:00 +31°C° 0 mm 2 mps 731 mmHg 65%
19:00 +30°C° 0 mm 1 mps 731 mmHg 67%
20:00 +31°C° 0 mm 2 mps 732 mmHg 65%
21:00 +31°C° 0 mm 3 mps 732 mmHg 63%
22:00 +31°C° 0 mm 3 mps 733 mmHg 61%
23:00 +31°C° 0 mm 3 mps 732 mmHg 61%

29 September, Tuesday

Time Temperature Precipitation Wind Pressure Humidity
00:00 +32°C° 0 mm 4 mps 732 mmHg 61%
01:00 +32°C° 0 mm 4 mps 732 mmHg 61%
02:00 +32°C° 0 mm 4 mps 732 mmHg 66%
03:00 +30°C° 0 mm 4 mps 732 mmHg 70%
04:00 +30°C° 0 mm 5 mps 732 mmHg 75%
05:00 +30°C° 0 mm 5 mps 732 mmHg 76%
06:00 +30°C° 0 mm 5 mps 732 mmHg 77%
07:00 +29°C° 0 mm 5 mps 733 mmHg 78%
08:00 +30°C° 0 mm 5 mps 733 mmHg 75%
09:00 +30°C° 0 mm 4 mps 733 mmHg 72%
10:00 +32°C° 0 mm 4 mps 734 mmHg 69%
11:00 +32°C° 0 mm 4 mps 733 mmHg 68%
12:00 +31°C° 0 mm 3 mps 733 mmHg 66%
13:00 +31°C° 0 mm 2 mps 732 mmHg 64%
14:00 +32°C° 0 mm 2 mps 731 mmHg 62%
15:00 +32°C° 0 mm 2 mps 731 mmHg 60%
16:00 +34°C° 0 mm 2 mps 730 mmHg 57%
17:00 +34°C° 0 mm 2 mps 731 mmHg 57%
18:00 +34°C° 0 mm 2 mps 731 mmHg 57%
19:00 +34°C° 0 mm 2 mps 731 mmHg 56%
20:00 +34°C° 0 mm 3 mps 732 mmHg 56%
21:00 +33°C° 0 mm 3 mps 732 mmHg 57%
22:00 +33°C° 0 mm 3 mps 732 mmHg 57%
23:00 +32°C° 0 mm 2 mps 732 mmHg 58%
Show more